Weather History for KTRK - May, 2013

Change the Weather History Date:

Thursday, May 30, 2013

  Actual Average Record
Temperature  
Mean Temperature 47 °F -  
Max Temperature 66 °F 67 °F 89 °F (2000)
Min Temperature 28 °F 34 °F 22 °F (1988)
Degree Days  
Heating Degree Days 18    
Moisture  
Dew Point 31 °F    
Average Humidity 69    
Maximum Humidity 100    
Minimum Humidity 14    
Precipitation  
Precipitation 0.00 in - - ()
Sea Level Pressure  
Sea Level Pressure 30.11 in    
Wind  
Wind Speed 3 mph (WSW)    
Max Wind Speed 16 mph    
Max Gust Speed 22 mph    
Visibility 8 miles    
Events Fog    
Averages and records for this station are not official NWS values.
T = Trace of Precipitation, MM = Missing Value Source: NWS Daily Summary

Daily Weather History Graph

Daily Weather History Graph

Search for Another Location

Airport or City:

Trip Planner

Search our weather history database for the weather conditions in past years. The results will help you decide how hot, cold, wet, or windy it might be!

Date:

Astronomy

May. 30, 2013 Rise Set
Actual Time 5:36 AM PDT 8:20 PM PDT
Civil Twilight 5:05 AM PDT 8:51 PM PDT
Nautical Twilight 4:25 AM PDT 9:31 PM PDT
Astronomical Twilight 3:40 AM PDT 10:16 PM PDT
Moon 12:25 AM PDT (5/30) 11:49 AM PDT (5/30)
Length of Visible Light 15h 46m
Length of Day
14h 43m
Waning Gibbous, 61% of the Moon is Illuminated
May 30
Waning Gibbous
May 31
Last Quarter
Jun 8
New
Jun 16
First Quarter
Jun 23
Full

Hourly Weather History & Observations

Time (PDT) Temp. Windchill Dew Point Humidity Pressure Visibility Wind Dir Wind Speed Gust Speed Precip Events Conditions
12:15 AM 35.6 °F - 32.0 °F 87% 30.08 in 10.0 mi Calm Calm - N/A   Clear
12:35 AM 35.6 °F - 33.8 °F 93% 30.08 in 10.0 mi Calm Calm - N/A   Clear
12:55 AM 37.4 °F - 35.6 °F 93% 30.07 in 10.0 mi Calm Calm - N/A   Clear
1:15 AM 35.6 °F - 33.8 °F 93% 30.07 in 10.0 mi Calm Calm - N/A   Clear
1:35 AM 33.8 °F - 32.0 °F 93% 30.08 in 1.2 mi Calm Calm - N/A   Clear
1:55 AM 35.6 °F 32.8 °F 32.0 °F 87% 30.08 in 10.0 mi ESE 3.5 mph - N/A   Clear
2:15 AM 32.0 °F - 32.0 °F 100% 30.08 in 10.0 mi Calm Calm - N/A   Clear
2:35 AM 32.0 °F - 32.0 °F 100% 30.07 in 1.5 mi Calm Calm - N/A   Clear
2:55 AM 33.8 °F - 32.0 °F 93% 30.07 in 10.0 mi Calm Calm - N/A   Clear
3:15 AM 32.0 °F - 32.0 °F 100% 30.07 in 0.2 mi Calm Calm - N/A Fog Light Freezing Fog
3:35 AM 32.0 °F 28.7 °F 32.0 °F 100% 30.07 in 10.0 mi ENE 3.5 mph - N/A   Clear
3:55 AM 32.0 °F - 30.2 °F 93% 30.08 in 10.0 mi Calm Calm - N/A   Clear
4:15 AM 30.2 °F 26.7 °F 28.4 °F 93% 30.08 in 0.5 mi SSE 3.5 mph - N/A Fog Light Freezing Fog
4:35 AM 28.4 °F 24.6 °F 28.4 °F 100% 30.08 in 0.2 mi SSW 3.5 mph - N/A Fog Light Freezing Fog
4:55 AM 28.4 °F - 28.4 °F 100% 30.08 in 0.2 mi Calm Calm - N/A Fog Light Freezing Fog
5:15 AM 32.0 °F - 32.0 °F 100% 30.09 in 0.2 mi Calm Calm - N/A Fog Light Freezing Fog
5:35 AM 28.4 °F - 28.4 °F 100% 30.09 in 0.5 mi Calm Calm - N/A Fog Light Freezing Fog
5:55 AM 28.4 °F - 28.4 °F 100% 30.09 in 0.2 mi Calm Calm - N/A Fog Light Freezing Fog
6:15 AM 30.2 °F 26.7 °F 30.2 °F 100% 30.09 in 0.2 mi North 3.5 mph - N/A Fog Light Freezing Fog
6:35 AM 32.0 °F - 32.0 °F 100% 30.10 in 0.2 mi Calm Calm - N/A Fog Light Freezing Fog
6:55 AM 32.0 °F - 32.0 °F 100% 30.10 in 0.1 mi Calm Calm - N/A Fog Fog
7:45 AM 32.0 °F - 32.0 °F 100% 30.11 in 0.1 mi Calm Calm - N/A Fog Fog
8:50 AM 39.2 °F - 37.4 °F 93% 30.10 in 10.0 mi Calm Calm - N/A   Clear
9:45 AM 50.0 °F - 35.6 °F 58% 30.09 in 10.0 mi NNW 3.5 mph - N/A   Clear
10:55 AM 59.0 °F - 26.6 °F 29% 30.07 in 10.0 mi NNE 3.5 mph - N/A   Clear
11:45 AM 64.4 °F - 14.0 °F 14% 30.07 in 10.0 mi NW 12.7 mph - N/A   Clear
12:45 PM 64.4 °F - 23.0 °F 21% 30.08 in 10.0 mi WSW 9.2 mph 21.9 mph N/A   Clear
1:45 PM 66.2 °F - 24.8 °F 21% 30.08 in 10.0 mi WNW 12.7 mph 20.7 mph N/A   Clear
2:55 PM 64.4 °F - 26.6 °F 24% 30.09 in 10.0 mi WNW 12.7 mph 20.7 mph N/A   Clear
3:45 PM 64.4 °F - 32.0 °F 30% 30.09 in 10.0 mi West 15.0 mph 19.6 mph N/A   Clear
4:45 PM 64.4 °F - 32.0 °F 30% 30.09 in 10.0 mi WSW 11.5 mph 19.6 mph N/A   Partly Cloudy
5:55 PM 62.6 °F - 28.4 °F 27% 30.10 in 10.0 mi West 16.1 mph 20.7 mph N/A   Clear
6:15 PM 62.6 °F - 28.4 °F 27% 30.11 in 10.0 mi West 13.8 mph 18.4 mph N/A   Clear
6:35 PM 62.6 °F - 30.2 °F 30% 30.11 in 10.0 mi West 11.5 mph 19.6 mph N/A   Clear
6:55 PM 60.8 °F - 30.2 °F 31% 30.12 in 10.0 mi West 8.1 mph - N/A   Clear
7:15 PM 59.0 °F - 32.0 °F 36% 30.12 in 10.0 mi West 9.2 mph - N/A   Clear
7:35 PM 59.0 °F - 32.0 °F 36% 30.13 in 10.0 mi West 8.1 mph - N/A   Clear
7:55 PM 57.2 °F - 32.0 °F 38% 30.13 in 10.0 mi West 8.1 mph - N/A   Clear
8:15 PM 55.4 °F - 32.0 °F 41% 30.14 in 10.0 mi West 5.8 mph - N/A   Clear
8:35 PM 53.6 °F - 33.8 °F 47% 30.14 in 10.0 mi SSE 3.5 mph - N/A   Clear
8:55 PM 51.8 °F - 33.8 °F 50% 30.15 in 10.0 mi WSW 6.9 mph - N/A   Clear
9:15 PM 48.2 °F - 33.8 °F 58% 30.17 in 10.0 mi SE 4.6 mph - N/A   Clear
9:35 PM 48.2 °F - 35.6 °F 62% 30.17 in 10.0 mi Calm Calm - N/A   Clear
9:55 PM 44.6 °F 41.4 °F 33.8 °F 66% 30.18 in 10.0 mi SSE 5.8 mph - N/A   Clear
10:15 PM 41.0 °F 39.0 °F 32.0 °F 70% 30.19 in 10.0 mi SSE 3.5 mph - N/A   Clear
10:35 PM 41.0 °F 39.0 °F 33.8 °F 76% 30.19 in 10.0 mi SW 3.5 mph - N/A   Clear
10:55 PM 39.2 °F 37.0 °F 33.8 °F 81% 30.19 in 10.0 mi SW 3.5 mph - N/A   Clear
11:15 PM 39.2 °F 35.9 °F 32.0 °F 75% 30.19 in 10.0 mi SSE 4.6 mph - N/A   Clear
11:35 PM 39.2 °F - 32.0 °F 75% 30.19 in 10.0 mi Calm Calm - N/A   Clear
11:55 PM 41.0 °F 38.0 °F 32.0 °F 70% 30.20 in 10.0 mi ENE 4.6 mph - N/A   Clear